THOR AGENA B R/B, 1807

Orbit data source: Space-Track

THOR AGENA B R/B, 1807 is space debris in LEO originally from a launch on Mon, 29 Nov 1965 UTC launched from the Air Force Western Test Range (AFWTR). Debris objects in space refer to the collection of defunct objects orbiting the Earth. Examples of debris include non-operational satellites, rocket bodies, and fragments generated from explosions, collisions, or faulty payload assembly.

Loading next visibility...
Identifier
1807, 1965-098C
Orbit
LEO
Last TLE update
13 hours ago
Origin
Manufacturer
LMSC
Mission
Spacecraft
Bus & Motor
AGENA B, Unknown motor
Mass
600 kg wet, 600 kg dry
Launch date (UTC)
1965-11-29 (60 years ago)
Launch vehicle
Unknown
Launch site
Air Force Western Test Range (AFWTR)
Object type
Payload
Rocket body
Debris
Shape & HBR
Cyl + 1 Nozzle, 6.3 m
Radar Cross Section
8.306 m², Large (>1 m²)

Expand to show TLE details & history

TLE from 13 hours ago
0 THOR AGENA B R/B
1 01807U 65098C   25167.27145618  .00000853  00000-0  27599-3 0  9990
2 01807  79.8366 351.4459 1333181  52.9221 318.6414 12.27543739628397
Epoch: 2025-06-16T06:30Z
TLE epoch observation values (Epoch: 2025-06-16T06:30:53.813Z)
Latitude
-0.00007°
Longitude
-11.06293°
Altitude
839.76 km
Speed
7.764 km/s
True Right ascension
23h 25m 47s
True Declination
0° 00' 00"
Sunlit
Object was in daylight at epoch
Visualization orbit readout
Latitude
-75.42087°
Longitude
-54.86007°
Altitude
2,196.474 km
Speed
6.551 km/s
Apparent Right ascension
19h 04m 48s
Apparent Declination
-60° 59' 12"
Sunlit
Object is in daylight
Visualization observer readout
Local Sidereal Time
06:27:37
Azimuth
192.157° SSW
Elevation
-68.164°
Doppler factor
1
Orbital elements
Apogee altitude
2,615.209 km
Perigee altitude
499.341 km
Semi-major axis
7,935.412 km
Eccentricity
0.13332
Inclination
79.8366°
RAAN
351.4459°
Arg. of periapsis
52.9221°
True anomaly
Unknown
Mean anomaly
318.6414°
Eccentric anomaly
Unknown
Mean motion
3.07036 °/min
Orbital period
117.25 mins
BSTAR
0.00027599
Loading maneuver chart data...
Loading SW <> Apogee altitude chart data...
Loading historical data...
Loading historical data...
Loading historical data...
Loading historical data...
Loading historical data...
Loading historical data...
Loading historical data...

THOR AGENA B R/B Visibility forecast

Observer location: undefined°, undefined°

Span
Click to sort rows by Start time (UTC) header in descending order
Start Az.
Max El. time (UTC)
Max El. Az.
Max El.
End time (UTC)
End Az.
12 mins2025-06-16 22:40:46.926Z21.053° NNE2025-06-16 22:45:46.926Z75.139° E25.273°2025-06-16 22:52:46.926Z126.347° SE
15 mins2025-06-17 00:38:46.926Z333.905° NNW2025-06-17 00:44:46.926Z249.552° W39.024°2025-06-17 00:53:46.926Z190.197° SSW
4 mins2025-06-17 13:57:46.926Z250.119° W2025-06-17 13:59:46.926Z296.14° NW20.561°2025-06-17 14:01:46.926Z335.552° NNW
|